Overview Statistics Trail Chart Weather Telemetry Raw packets
 

This is the latest recevied weather packets stored in our database for station/object CT7BNL-13. If no packets are shown the sender has not sent any weather packets the latest 10 day(s).

<< 23 24 25 26 27 28 29 >>
Time Temp. Humidity Pressure Rain* Wind** Luminosity Snow
1788043764 17.22° C 89% 1027.3 hPa 0 mm - 0 W/m² -
1788042865 17.22° C 88% 1027.3 hPa 0 mm - 0 W/m² -
1788041965 17.78° C 88% 1027.3 hPa 0 mm - 0 W/m² -
1788041065 17.78° C 86% 1027.3 hPa 0 mm - 0 W/m² -
1788040166 17.78° C 84% 1027.7 hPa 0 mm - 0 W/m² -
1788039265 18.33° C 83% 1027.4 hPa 0 mm - 0 W/m² -
1788038365 18.33° C 82% 1027.3 hPa 0 mm - 0 W/m² -
1788037465 18.33° C 81% 1027.3 hPa 0 mm - 0 W/m² -
1788036565 18.33° C 77% 1027.3 hPa 0 mm - 0 W/m² -
1788035665 18.89° C 77% 1027.3 hPa 0 mm - 0 W/m² -
1788034765 18.89° C 74% 1027.3 hPa 0 mm - 0 W/m² -
1788033865 19.44° C 73% 1027.2 hPa 0 mm - 0 W/m² -
1788032965 19.44° C 71% 1026.7 hPa 0 mm - 0 W/m² -
1788032065 19.44° C 70% 1027.1 hPa 0 mm - 0 W/m² -
1788031165 20° C 72% 1026.6 hPa 0 mm - 1 W/m² -
1788029366 22.22° C 67% 1026.4 hPa 0 mm - 19 W/m² -
1788028465 22.78° C 64% 1026.6 hPa 0 mm - 33 W/m² -
1788027565 23.33° C 64% 1026.7 hPa 0 mm - 54 W/m² -
1788026665 23.89° C 61% 1026.4 hPa 0 mm - 83 W/m² -
1788025765 24.44° C 62% 1026.5 hPa 0 mm - 119 W/m² -
1788024864 25° C 58% 1026.5 hPa 0 mm - 165 W/m² -
1788023965 25° C 59% 1026.1 hPa 0 mm - 212 W/m² -
1788023065 25.56° C 57% 1026.4 hPa 0 mm - 264 W/m² -
1788022164 26.11° C 56% 1026.4 hPa 0 mm - 315 W/m² -
1788021265 26.67° C 54% 1026.6 hPa 0 mm - 367 W/m² -

* Rain latest hour (hover to see other rain measurements)
** Current wind speed in m/s (hover to see current wind gust speed)